W7ZP Weather Reports


time (UTC)temp
C
wind
direction
speed
KPH
gust
KPH
rain 1hr
cm
rain 24hr
cm
rain mn
cm
humidity
%
barometer
mb
20260509000540 17 292 0.0 1.6 0.00 0.00 0.00 61 1013.2
20260509000049 17 292 0.0 4.8 0.00 0.00 0.00 60 1013.3
20260508235540 17 212 0.0 4.8 0.00 0.00 0.00 59 1013.3
20260508235040 18 199 0.0 4.8 0.00 0.00 0.00 60 1013.4
20260508234540 18 211 0.0 4.8 0.00 0.00 0.00 60 1013.3
20260508234042 18 232 0.0 3.2 0.00 0.00 0.00 58 1013.3
20260508233538 18 189 0.0 6.4 0.00 0.00 0.00 57 1013.4
20260508233040 18 244 1.6 8.0 0.00 0.00 0.00 59 1013.3
20260508232538 18 248 1.6 6.4 0.00 0.00 0.00 57 1013.4
20260508232038 18 223 0.0 6.4 0.00 0.00 0.00 59 1013.3
20260508231539 18 241 0.0 3.2 0.00 0.00 0.00 60 1013.3
20260508231037 19 231 0.0 3.2 0.00 0.00 0.00 56 1013.2
20260508230536 19 233 0.0 6.4 0.00 0.00 0.00 60 1013.3
20260508230036 19 213 0.0 6.4 0.00 0.00 0.00 55 1013.3
20260508225537 19 167 0.0 3.2 0.00 0.00 0.00 61 1013.4
20260508225037 19 208 0.0 3.2 0.00 0.00 0.00 63 1013.2
20260508224537 19 208 0.0 4.8 0.00 0.00 0.00 56 1013.2
20260508224036 20 200 0.0 4.8 0.00 0.00 0.00 57 1013.2
20260508223536 20 219 0.0 3.2 0.00 0.00 0.00 62 1013.3
20260508223038 20 249 0.0 11.3 0.00 0.00 0.00 54 1013.3
20260508222536 20 249 1.6 11.3 0.00 0.00 0.00 54 1013.2
20260508222035 20 200 0.0 9.7 0.00 0.00 0.00 52 1013.4
20260508221537 20 223 1.6 9.7 0.00 0.00 0.00 50 1013.3
20260508221036 20 212 1.6 9.7 0.00 0.00 0.00 53 1013.4
20260508220535 20 157 1.6 8.0 0.00 0.00 0.00 52 1013.5
20260508220040 21 213 0.0 9.7 0.00 0.00 0.00 51 1013.5
20260508215532 21 235 0.0 12.9 0.00 0.00 0.00 47 1013.5
20260508215033 21 223 3.2 9.7 0.00 0.00 0.00 45 1013.5
20260508214534 21 194 1.6 11.3 0.00 0.00 0.00 48 1013.6
20260508214031 21 206 1.6 11.3 0.00 0.00 0.00 48 1013.5
20260508213531 22 98 0.0 9.7 0.00 0.00 0.00 47 1013.6
20260508213044 22 255 1.6 6.4 0.00 0.00 0.00 44 1013.5
20260508212532 22 254 0.0 4.8 0.00 0.00 0.00 45 1013.7
20260508212035 22 261 3.2 8.0 0.00 0.00 0.00 42 1013.9
20260508211534 23 255 0.0 8.0 0.00 0.00 0.00 45 1013.7
20260508211031 23 183 0.0 11.3 0.00 0.00 0.00 48 1013.6
20260508210530 23 234 1.6 6.4 0.00 0.00 0.00 43 1013.5
20260508210033 23 244 0.0 4.8 0.00 0.00 0.00 47 1013.6
20260508205530 22 221 0.0 4.8 0.00 0.00 0.00 45 1013.6
20260508205028 22 260 0.0 4.8 0.00 0.00 0.00 47 1013.5
20260508204528 22 219 0.0 9.7 0.00 0.00 0.00 50 1013.6
20260508204027 21 267 3.2 9.7 0.00 0.00 0.00 49 1013.6
20260508203527 22 192 0.0 3.2 0.00 0.00 0.00 43 1013.8
20260508203033 22 242 0.0 4.8 0.00 0.00 0.00 45 1013.8
20260508202530 22 148 0.0 4.8 0.00 0.00 0.00 43 1013.9
20260508202027 22 261 1.6 4.8 0.00 0.00 0.00 44 1013.7
20260508201527 22 288 0.0 3.2 0.00 0.00 0.00 42 1013.6
20260508201026 22 277 0.0 3.2 0.00 0.00 0.00 47 1013.7
20260508200525 22 214 0.0 3.2 0.00 0.00 0.00 48 1013.8
20260508200028 22 211 0.0 3.2 0.00 0.00 0.00 45 1014.0
20260508195523 22 322 0.0 4.8 0.00 0.00 0.00 45 1014.1
20260508195023 22 258 1.6 4.8 0.00 0.00 0.00 41 1014.3
20260508194523 22 260 0.0 6.4 0.00 0.00 0.00 47 1014.2
20260508194020 22 138 1.6 9.7 0.00 0.00 0.00 46 1014.3
20260508193519 22 264 3.2 9.7 0.00 0.00 0.00 51 1014.5
20260508193019 22 240 0.0 6.4 0.00 0.00 0.00 50 1014.6
20260508192518 22 200 0.0 11.3 0.00 0.00 0.00 53 1014.7
20260508192018 22 242 0.0 12.9 0.00 0.00 0.00 52 1015.1
20260508191525 22 237 0.0 6.4 0.00 0.00 0.00 47 1015.2
20260508191016 22 265 0.0 4.8 0.00 0.00 0.00 52 1015.4
20260508190515 22 244 1.6 4.8 0.00 0.00 0.00 54 1015.4
20260508190015 22 271 0.0 4.8 0.00 0.00 0.00 51 1015.4
20260508185516 22 198 0.0 9.7 0.00 0.00 0.00 49 1015.5
20260508185015 22 263 1.6 9.7 0.00 0.00 0.00 54 1015.6
20260508184518 22 204 0.0 9.7 0.00 0.00 0.00 57 1015.6
20260508184013 22 203 1.6 9.7 0.00 0.00 0.00 55 1015.6
20260508183513 22 142 0.0 4.8 0.00 0.00 0.00 50 1015.6
20260508183014 22 150 0.0 6.4 0.00 0.00 0.00 51 1015.7
20260508182514 22 259 3.2 6.4 0.00 0.00 0.00 51 1015.8
20260508182018 22 252 0.0 6.4 0.00 0.00 0.00 49 1015.8
20260508181535 22 252 1.6 6.4 0.00 0.00 0.00 51 1015.8
20260508181011 22 261 0.0 8.0 0.00 0.00 0.00 52 1015.7
20260508180510 22 143 0.0 12.9 0.00 0.00 0.00 49 1016.0
20260508180008 22 120 3.2 12.9 0.00 0.00 0.00 55 1016.1
20260508175508 21 180 1.6 6.4 0.00 0.00 0.00 49 1016.1
20260508175008 21 77 0.0 6.4 0.00 0.00 0.00 50 1016.1
20260508174514 21 242 0.0 9.7 0.00 0.00 0.00 50 1016.1
20260508174005 21 295 1.6 9.7 0.00 0.00 0.00 59 1016.1
20260508173505 21 261 0.0 4.8 0.00 0.00 0.00 54 1016.2
20260508173002 21 14 0.0 3.2 0.00 0.00 0.00 53 1016.4
20260508172502 20 101 0.0 6.4 0.00 0.00 0.00 55 1016.5
20260508172001 20 100 0.0 6.4 0.00 0.00 0.00 53 1016.7
20260508171604 20 263 1.6 4.8 0.00 0.00 0.00 53 1016.7
20260508171059 20 200 0.0 4.8 0.00 0.00 0.00 51 1016.8
20260508170558 20 70 0.0 6.4 0.00 0.00 0.00 57 1017.0
20260508170058 20 200 1.6 6.4 0.00 0.00 0.00 53 1016.9
20260508165557 20 15 0.0 3.2 0.00 0.00 0.00 52 1017.1
20260508165055 20 119 0.0 6.4 0.00 0.00 0.00 57 1017.1
20260508164557 19 109 0.0 6.4 0.00 0.00 0.00 48 1017.0
20260508164053 19 158 0.0 6.4 0.00 0.00 0.00 59 1017.1
20260508163555 19 194 0.0 6.4 0.00 0.00 0.00 61 1017.2
20260508163051 18 244 1.6 6.4 0.00 0.00 0.00 53 1017.5
20260508162551 19 244 0.0 4.8 0.00 0.00 0.00 57 1017.5
20260508162050 18 248 0.0 4.8 0.00 0.00 0.00 59 1017.7
20260508161549 18 186 0.0 4.8 0.00 0.00 0.00 52 1017.8
20260508161049 18 101 0.0 3.2 0.00 0.00 0.00 58 1017.7
20260508160550 18 227 0.0 4.8 0.00 0.00 0.00 56 1017.8
20260508160047 18 101 0.0 4.8 0.00 0.00 0.00 54 1017.8
20260508155545 18 192 0.0 6.4 0.00 0.03 0.00 58 1017.9
20260508155043 18 134 0.0 6.4 0.00 0.03 0.00 57 1017.8
20260508154552 17 76 0.0 3.2 0.00 0.03 0.00 54 1017.9
20260508154042 17 125 0.0 3.2 0.00 0.03 0.00 62 1018.0
20260508153540 17 99 0.0 6.4 0.00 0.03 0.00 60 1018.2
20260508153039 17 117 0.0 6.4 0.00 0.03 0.00 54 1018.2
20260508152537 17 94 0.0 6.4 0.00 0.03 0.00 58 1018.4
20260508152038 17 139 1.6 4.8 0.00 0.03 0.00 59 1018.3
20260508151535 17 262 0.0 6.4 0.00 0.03 0.00 55 1018.4
20260508151034 17 360 0.0 6.4 0.00 0.03 0.00 57 1018.5
20260508150530 17 98 0.0 6.4 0.00 0.03 0.00 67 1018.5
20260508150030 16 81 0.0 6.4 0.00 0.05 0.00 58 1018.6
20260508145529 16 68 0.0 6.4 0.00 0.05 0.00 62 1018.6
20260508145027 16 97 1.6 4.8 0.00 0.05 0.00 64 1018.6
20260508144526 15 355 0.0 4.8 0.00 0.05 0.00 62 1018.5
20260508144024 15 130 0.0 3.2 0.00 0.05 0.00 74 1018.5
20260508143523 15 94 0.0 4.8 0.00 0.05 0.00 81 1018.5
20260508143021 14 94 0.0 4.8 0.00 0.05 0.00 83 1018.5
20260508142520 13 243 0.0 0.0 0.00 0.05 0.00 83 1018.5
20260508142019 13 351 0.0 0.0 0.00 0.05 0.00 80 1018.6
20260508141521 13 23 0.0 0.0 0.00 0.05 0.00 88 1018.6
20260508141015 12 23 0.0 0.0 0.00 0.05 0.00 89 1018.7
20260508140514 12 360 0.0 0.0 0.00 0.05 0.00 89 1018.7
20260508140012 12 360 0.0 0.0 0.00 0.08 0.00 89 1018.8
20260508135512 11 235 0.0 0.0 0.00 0.08 0.00 90 1018.8
20260508135011 11 188 0.0 0.0 0.00 0.08 0.00 91 1018.8
20260508134512 11 188 0.0 0.0 0.00 0.08 0.00 91 1018.8
20260508134008 11 217 0.0 1.6 0.00 0.08 0.00 94 1018.8
20260508133507 10 248 0.0 1.6 0.00 0.08 0.00 95 1018.7
20260508133006 10 105 0.0 0.0 0.00 0.08 0.00 96 1018.7
20260508132507 10 105 0.0 0.0 0.00 0.08 0.00 96 1018.7
20260508132005 10 112 0.0 0.0 0.00 0.08 0.00 96 1018.7
20260508131505 10 115 0.0 0.0 0.00 0.08 0.00 97 1018.5
20260508131005 9 115 0.0 0.0 0.00 0.08 0.00 96 1018.4
20260508130503 9 115 0.0 0.0 0.00 0.08 0.00 97 1018.5
20260508130003 9 117 0.0 0.0 0.00 0.08 0.00 97 1018.5
20260508125503 9 139 0.0 0.0 0.00 0.08 0.00 97 1018.6
20260508125003 9 19 0.0 0.0 0.00 0.08 0.00 97 1018.6
20260508124502 8 15 0.0 0.0 0.00 0.08 0.00 97 1018.6
20260508124001 8 15 0.0 0.0 0.00 0.08 0.00 97 1018.6
20260508123502 8 15 0.0 0.0 0.00 0.08 0.00 97 1018.6
20260508123000 8 15 0.0 0.0 0.00 0.08 0.00 97 1018.6
20260508122500 8 15 0.0 0.0 0.00 0.08 0.00 97 1018.5
20260508122100 8 15 0.0 0.0 0.00 0.08 0.00 97 1018.5
20260508121610 8 15 0.0 0.0 0.00 0.08 0.00 97 1018.5
20260508121102 8 15 0.0 0.0 0.00 0.08 0.00 97 1018.4
20260508120557 7 17 0.0 0.0 0.00 0.08 0.00 97 1018.4
20260508115557 7 75 0.0 1.6 0.00 0.08 0.00 96 1018.2
20260508115056 6 89 0.0 1.6 0.00 0.08 0.00 96 1018.1
20260508114556 6 90 0.0 0.0 0.00 0.08 0.00 96 1018.1
20260508114054 6 90 0.0 0.0 0.00 0.08 0.00 96 1018.0
20260508113553 6 90 0.0 0.0 0.00 0.08 0.00 96 1017.9
20260508113056 6 90 0.0 0.0 0.00 0.08 0.00 96 1017.8
20260508112552 6 90 0.0 0.0 0.00 0.08 0.00 96 1017.8
20260508112051 6 90 0.0 0.0 0.00 0.08 0.00 96 1017.8
20260508111558 6 190 0.0 0.0 0.00 0.08 0.00 96 1017.6
20260508111050 6 190 0.0 0.0 0.00 0.08 0.00 96 1017.5
20260508110548 6 190 0.0 0.0 0.00 0.08 0.00 96 1017.5
20260508110058 6 190 0.0 0.0 0.00 0.08 0.00 95 1017.4
20260508105549 6 190 0.0 0.0 0.00 0.10 0.00 95 1017.4
20260508105050 6 190 0.0 0.0 0.00 0.10 0.00 95 1017.3
20260508104546 6 190 0.0 0.0 0.00 0.10 0.00 95 1017.2
20260508104045 6 190 0.0 0.0 0.00 0.10 0.00 95 1017.1
20260508103544 6 190 0.0 0.0 0.00 0.10 0.00 95 1017.0
20260508103146 6 190 0.0 0.0 0.00 0.10 0.00 95 1016.9
20260508102543 6 190 0.0 0.0 0.00 0.10 0.00 95 1016.9
20260508102043 6 190 0.0 0.0 0.00 0.10 0.00 95 1016.9
20260508101546 6 190 0.0 0.0 0.00 0.10 0.00 95 1016.8
20260508101042 6 190 0.0 0.0 0.00 0.10 0.00 95 1016.7
20260508100541 6 190 0.0 0.0 0.00 0.10 0.00 95 1016.7
20260508100041 6 190 0.0 0.0 0.00 0.10 0.00 95 1016.5
20260508095540 6 190 0.0 0.0 0.00 0.23 0.00 95 1016.5
20260508095040 6 190 0.0 0.0 0.00 0.23 0.00 95 1016.5
20260508094601 6 190 0.0 0.0 0.00 0.23 0.00 95 1016.5
20260508094040 6 190 0.0 0.0 0.00 0.23 0.00 95 1016.5
20260508093540 6 190 0.0 0.0 0.00 0.23 0.00 95 1016.5
20260508093040 6 190 0.0 0.0 0.00 0.23 0.00 95 1016.5
20260508092538 6 190 0.0 0.0 0.00 0.23 0.00 95 1016.5
20260508092038 6 190 0.0 0.0 0.00 0.23 0.00 95 1016.4
20260508091539 6 190 0.0 0.0 0.00 0.23 0.00 95 1016.5
20260508091037 7 190 0.0 0.0 0.00 0.23 0.00 95 1016.4
20260508090536 7 190 0.0 0.0 0.00 0.23 0.00 95 1016.4
20260508090037 7 190 0.0 0.0 0.00 0.23 0.00 95 1016.4
20260508085534 7 190 0.0 0.0 0.00 0.23 0.00 95 1016.4
20260508085032 7 190 0.0 0.0 0.00 0.23 0.00 95 1016.5
20260508084633 7 190 0.0 0.0 0.00 0.23 0.00 95 1016.5
20260508084030 7 190 0.0 0.0 0.00 0.23 0.00 95 1016.5
20260508083533 7 190 0.0 0.0 0.00 0.23 0.00 95 1016.5
20260508083033 7 190 0.0 0.0 0.00 0.23 0.00 95 1016.6
20260508082529 7 190 0.0 0.0 0.00 0.23 0.00 95 1016.5
20260508082030 7 190 0.0 0.0 0.00 0.23 0.00 95 1016.4
20260508081529 7 190 0.0 0.0 0.00 0.23 0.00 95 1016.4
20260508081029 7 190 0.0 0.0 0.00 0.23 0.00 95 1016.5
20260508080529 7 190 0.0 0.0 0.00 0.23 0.00 95 1016.5
20260508080026 7 190 0.0 0.0 0.00 0.25 0.00 95 1016.5
20260508075526 7 190 0.0 0.0 0.00 0.25 0.00 95 1016.5
20260508075027 7 190 0.0 0.0 0.00 0.25 0.00 95 1016.6
20260508074525 7 190 0.0 0.0 0.00 0.25 0.00 95 1016.7
20260508074024 7 190 0.0 0.0 0.00 0.25 0.00 95 1016.7
20260508073523 8 190 0.0 0.0 0.00 0.25 0.00 95 1016.7
20260508073028 8 190 0.0 0.0 0.00 0.25 0.00 95 1016.5
20260508072523 8 190 0.0 0.0 0.00 0.25 0.00 95 1016.6
20260508072023 8 190 0.0 0.0 0.00 0.25 0.00 95 1016.8
20260508071527 8 190 0.0 0.0 0.00 0.25 0.00 95 1016.7
20260508071022 8 190 0.0 0.0 0.00 0.25 0.00 95 1016.7
20260508070521 8 190 0.0 0.0 0.00 0.25 0.00 95 1016.6
20260508070021 8 190 0.0 0.0 0.00 0.25 0.00 95 1016.7
20260508065524 8 190 0.0 0.0 0.00 0.25 0.00 95 1016.7
20260508065019 8 190 0.0 0.0 0.00 0.25 0.00 95 1016.6
20260508064531 8 190 0.0 0.0 0.00 0.25 0.00 95 1016.7
20260508064018 8 190 0.0 0.0 0.00 0.25 0.00 95 1016.7
20260508063517 8 190 0.0 0.0 0.00 0.25 0.00 95 1016.6
20260508063023 8 190 0.0 0.0 0.00 0.25 0.00 95 1016.6
20260508062516 8 190 0.0 0.0 0.00 0.25 0.00 95 1016.7
20260508062016 9 190 0.0 0.0 0.00 0.25 0.00 95 1016.4
20260508061519 9 190 0.0 0.0 0.00 0.25 0.00 95 1016.6
20260508061023 9 190 0.0 0.0 0.00 0.25 0.00 95 1016.5
20260508060514 9 190 0.0 0.0 0.00 0.25 0.00 95 1016.6
20260508060017 9 190 0.0 0.0 0.00 0.25 0.00 95 1016.6
20260508055513 9 190 0.0 0.0 0.00 0.25 0.00 95 1016.9
20260508055015 9 190 0.0 0.0 0.00 0.25 0.00 95 1016.7
20260508054516 9 190 0.0 0.0 0.00 0.25 0.00 95 1016.7
20260508054012 9 190 0.0 0.0 0.00 0.25 0.00 95 1016.7
20260508053512 9 190 0.0 0.0 0.00 0.25 0.00 95 1016.7
20260508053020 9 190 0.0 0.0 0.00 0.25 0.00 95 1016.6
20260508052512 9 190 0.0 0.0 0.00 0.25 0.00 95 1016.5
20260508052011 9 190 0.0 0.0 0.00 0.25 0.00 95 1016.6
20260508051511 9 190 0.0 0.0 0.00 0.25 0.00 95 1016.7
20260508051011 9 190 0.0 0.0 0.00 0.25 0.00 95 1016.7
20260508050511 9 190 0.0 0.0 0.00 0.25 0.00 95 1016.7
20260508050018 10 190 0.0 0.0 0.00 0.28 0.00 95 1016.7
20260508045511 10 190 0.0 0.0 0.00 0.28 0.00 95 1016.7
20260508045007 10 190 0.0 0.0 0.00 0.28 0.00 95 1016.6
20260508044507 10 190 0.0 0.0 0.00 0.28 0.00 95 1016.5
20260508044009 10 190 0.0 0.0 0.00 0.28 0.00 95 1016.5
20260508043506 10 190 0.0 0.0 0.00 0.28 0.00 95 1016.6
20260508043008 10 190 0.0 0.0 0.00 0.28 0.00 95 1016.5
20260508042505 10 190 0.0 0.0 0.00 0.28 0.00 95 1016.4
20260508042004 10 190 0.0 0.0 0.00 0.28 0.00 95 1016.4
20260508041504 10 190 0.0 0.0 0.00 0.28 0.00 94 1016.4
20260508041003 10 190 0.0 0.0 0.00 0.28 0.00 94 1016.3
20260508040502 10 190 0.0 0.0 0.00 0.28 0.00 95 1016.3
20260508040001 10 190 0.0 0.0 0.00 0.28 0.28 95 1016.3
20260508035603 10 190 0.0 0.0 0.00 0.28 0.28 95 1016.4
20260508035503 10 190 0.0 0.0 0.00 0.28 0.28 95 1016.3
20260508035104 10 190 0.0 0.0 0.00 0.28 0.28 95 1016.3
20260508034605 10 190 0.0 0.0 0.00 0.28 0.28 94 1016.2
20260508034059 10 190 0.0 0.0 0.00 0.28 0.28 95 1016.1
20260508033558 10 190 0.0 0.0 0.00 0.28 0.28 95 1016.1
20260508033058 10 190 0.0 0.0 0.00 0.28 0.28 95 1015.8
20260508032558 10 190 0.0 0.0 0.00 0.28 0.28 95 1016.1
20260508032101 10 190 0.0 0.0 0.00 0.28 0.28 95 1016.2
20260508031559 11 190 0.0 0.0 0.00 0.28 0.28 95 1016.2
20260508031059 11 190 0.0 0.0 0.00 0.28 0.28 94 1016.1
20260508030556 11 190 0.0 0.0 0.00 0.28 0.28 94 1016.1
20260508030058 11 190 0.0 0.0 0.00 0.28 0.28 94 1016.0
20260508025553 11 190 0.0 0.0 0.00 0.30 0.28 94 1015.8
20260508025053 11 190 0.0 0.0 0.00 0.30 0.28 94 1015.7
20260508024553 11 190 0.0 0.0 0.00 0.30 0.28 94 1015.7
20260508024053 11 190 0.0 0.0 0.00 0.30 0.28 94 1015.6
20260508023552 11 190 0.0 0.0 0.00 0.30 0.28 94 1015.5
20260508023052 11 190 0.0 0.0 0.00 0.30 0.28 94 1015.6
20260508022551 11 190 0.0 0.0 0.00 0.30 0.28 94 1015.7
20260508022051 11 190 0.0 0.0 0.00 0.30 0.28 94 1015.7
20260508021553 11 190 0.0 0.0 0.00 0.30 0.28 93 1015.6
20260508021050 11 190 0.0 0.0 0.00 0.30 0.28 93 1015.6
20260508020552 11 190 0.0 0.0 0.00 0.30 0.28 93 1015.5
20260508020048 11 190 0.0 0.0 0.00 0.30 0.28 93 1015.3
20260508015547 11 190 0.0 0.0 0.00 0.33 0.28 93 1015.1
20260508015048 12 190 0.0 0.0 0.00 0.33 0.28 93 1015.0
20260508014552 12 190 0.0 0.0 0.00 0.33 0.28 93 1014.8
20260508014048 12 190 0.0 0.0 0.00 0.33 0.28 93 1014.7
20260508013544 12 190 0.0 0.0 0.00 0.33 0.28 93 1014.7
20260508013046 12 190 0.0 0.0 0.00 0.33 0.28 93 1014.7
20260508012543 12 190 0.0 0.0 0.00 0.33 0.28 93 1014.6
20260508012043 12 190 0.0 0.0 0.00 0.33 0.28 93 1014.6
20260508011545 12 190 0.0 0.0 0.00 0.33 0.28 93 1014.5
20260508011042 12 190 0.0 0.0 0.00 0.33 0.28 92 1014.3
20260508010547 12 190 0.0 0.0 0.00 0.33 0.28 92 1014.4
20260508010043 12 190 0.0 0.0 0.00 0.33 0.28 92 1014.3
20260508005543 13 190 0.0 0.0 0.00 0.66 0.28 92 1014.1
20260508005043 13 190 0.0 0.0 0.00 0.66 0.28 92 1014.2
20260508004543 13 190 0.0 0.0 0.00 0.66 0.28 91 1014.2
20260508004041 13 190 0.0 0.0 0.00 0.66 0.28 91 1014.1
20260508003541 13 190 0.0 0.0 0.00 0.66 0.28 90 1014.1
20260508003057 13 190 0.0 0.0 0.00 0.66 0.28 91 1014.0
20260508002544 13 190 0.0 0.0 0.00 0.66 0.28 91 1013.9
20260508002041 13 190 0.0 0.0 0.00 0.66 0.28 90 1013.8
20260508001544 13 190 0.0 0.0 0.00 0.66 0.28 90 1013.7
20260508001040 14 190 0.0 0.0 0.00 0.66 0.28 91 1013.6